Terminal Aerodrome Forecast
Issued by NWS

Home | Current Version | Previous Version | Graphics & Text | Print | Product List | Glossary On
Versions: 1 2 3 4 5 6 7 8 9 10 11 12 13
000
FTUS43 KBIS 192300
TAFDIK
TAF
KDIK 192332Z 2000/2024 28017G24KT P6SM SKC
     FM200200 31008KT P6SM SCT250
     FM200800 28011KT P6SM SCT120
     FM201700 31018G26KT P6SM SCT250=

USA.gov is the U.S. government's official web portal to all federal, state and local government web resources and services.